7 * 24
多渠道服务支持
STARLINK-31668是美国太空探索技术公司SpaceX于2024年4月23日发射的星链Starlink低轨通信卫星,属于星链第二代星座,具备激光星间链路能力,可实现卫星间直接通信,助力构建覆盖全球的高速卫星互联网,为地面网络覆盖不足地区提供宽带服务,也为后续星链直连手机业务持续扩容,进一步扩大星链星座的全球服务覆盖范围。
美国
(US)
| 数据来源 | 国际轨道数据 |
| 星历时间: | 2026-09-10T04:30:37+0800 1天前 查看轨道信息 |
| 半长轴: | 6861.192km |
| 偏心率: | 0.0001188 |
| 轨道倾角: | 43.001° |
| 近地点辐角 | 267.739° |
| 升交点赤经 | 48.469° |
| 平近点角 | 92.333° |
| 近地点: | 482.239km |
| 远地点: | 483.871km |
| 周期: | 94.267分钟 |
| 每日圈数: | 15.275782 |
| 事件ID | 空间交会对象 | 最接近时刻(TCA) | 交会距离 | 交会风险概率(CRP) | 交会风险指数(CRI) | 操作 |
|---|---|---|---|---|---|---|
| CDM_260913-115205-958006-647221 |
STARLINK-31668
(59580)
STARLINK-35567
(66472) | 2026-09-13T 11:52:24+0000 |
0.228 km
中距离 | 5.117575E-4 高风险 | 0.89 | |
| CDM_260912-192105-958006-642421 |
STARLINK-31668
(59580)
STARLINK-35588
(66424) | 2026-09-12T 19:21:11+0000 |
1.120 km
极远距离 | 1.14792E-5 中风险 | 0.56 | |
| CDM_260912-174705-958006-642421 |
STARLINK-31668
(59580)
STARLINK-35588
(66424) | 2026-09-12T 17:47:02+0000 |
1.182 km
极远距离 | 9.509625E-6 低风险 | 0.55 | |
| CDM_260913-044805-958006-647221 |
STARLINK-31668
(59580)
STARLINK-35567
(66472) | 2026-09-13T 04:48:42+0000 |
1.197 km
极远距离 | 7.876824E-6 低风险 | 0.53 | |
| CDM_260913-084105-958006-642421 |
STARLINK-31668
(59580)
STARLINK-35588
(66424) | 2026-09-13T 08:41:30+0000 |
1.554 km
极远距离 | 3.831411E-6 低风险 | 0.47 | |
| CDM_260913-031405-958006-647221 |
STARLINK-31668
(59580)
STARLINK-35567
(66472) | 2026-09-13T 03:14:33+0000 |
1.660 km
极远距离 | 2.736166E-6 低风险 | 0.44 | |
| CDM_260913-070705-958006-642421 |
STARLINK-31668
(59580)
STARLINK-35588
(66424) | 2026-09-13T 07:07:20+0000 |
1.780 km
极远距离 | 2.560933E-6 低风险 | 0.43 | |
| CDM_260912-081505-958006-308321 |
STARLINK-31668
(59580)
STARLINK-32932
(63083) | 2026-09-12T 08:15:46+0000 |
2.815 km
极远距离 | 1.311317E-6 低风险 | 0.37 | |
| CDM_260913-101805-958006-647221 |
STARLINK-31668
(59580)
STARLINK-35567
(66472) | 2026-09-13T 10:18:15+0000 |
2.964 km
极远距离 | 8.307378E-7 极低风险 | 0.33 |